Powrót do katalogu

SL-24 R/B

AktywnyPO
NORAD 28811·ROCKET BODY·🇷🇺 Russia

Wystrzelony Aug 23, 2005 z Baikonur Cosmodrome

Loading…

Następne Przeloty (najbliższe 24 godziny)

TLE

ŚwieżeSource: Space-Track

Epoka: Sep 14, 2026, 11:24 UTC

1 28811U 05031C   26257.47561400 -.00000538  00000-0 -15997-3 0  9990
2 28811  97.7476 258.6100 0410608 105.2404 259.4539 14.00870249 76093

Śledź SL-24 R/B w czasie rzeczywistym z AllMySat

Download on the App Store